[[{"header":{"parameterUnit":"m.s-1","parameterCategory":2,"la1":30.2992,"la2":30.254,"lo1":-89.0895,"lo2":-89.0443,"dy":0.0025,"dx":0.0025,"nx":19,"ny":19,"refTime":"2026-04-11T03:00:00:Z","depth":"0","parameterNumber":2,"parameterNumberName":"U-component_of_CURRENTS"},"data":[0,0,0,0.386,0.3857,0.3722,0.3721,0.3796,0.3798,0,0,0,0,0,0,0,0,0,0,0,0.3914,0.3914,0.386,0.3857,0.3722,0.3721,0.3796,0.3798,0,0,0,0,0,0,0,0,0,0,0,0.3914,0.3914,0.3913,0.3857,0.3722,0.3721,0.3796,0.3834,0,0,0,0,0,0,0,0,0,0,0.3933,0.3989,0.3914,0.3913,0.3856,0.3722,0.3721,0.3833,0.3832,0.3932,0,0.3916,0,0.3867,0.381,0.381,0,0,0,0.3846,0.399,0.3918,0.3913,0.3855,0.3722,0.378,0.383,0.3829,0.3932,0.3916,0.3916,0.3869,0.3811,0.3812,0.3999,0.4,0,0,0.3854,0.3929,0.3918,0.3917,0.3832,0.3784,0.3776,0.3826,0.386,0.3916,0.3917,0.387,0.3812,0.3813,0.3998,0.3999,0,0,0,0.3882,0.3935,0.3856,0.3917,0.3876,0.3781,0.3771,0.3857,0.382,0.3917,0.3871,0.3813,0.3815,0.3997,0.3998,0.4052,0,0,0,0.3886,0.395,0.386,0.3908,0.3874,0.3842,0.3802,0.3816,0.3819,0.3871,0.3813,0.3817,0.3996,0.3998,0.4048,0.4004,0,0,0,0.3918,0.3955,0.3933,0.3912,0.3851,0.3837,0.3803,0.3814,0.3794,0.381,0.3817,0.3996,0.3998,0.4046,0.4001,0.4051,0,0,0,0.4006,0.3977,0.3936,0.3912,0.3853,0.3816,0.3801,0.3803,0.382,0.3814,0.3997,0.3998,0.4045,0.4,0.4049,0.3901,0.3898,0,0,0.4002,0.398,0.3959,0.3916,0.3852,0.3833,0.3864,0.3877,0.3885,0.3994,0.3996,0.4049,0.4001,0.4051,0.4003,0.3996,0,0,0,0.3978,0.3947,0.3931,0.3888,0.3866,0.3867,0.3895,0.3929,0.399,0.3902,0.4071,0.4037,0.4067,0.3975,0.3971,0.3779,0.4006,0.4006,0.4006,0.4044,0.3979,0.3928,0.3863,0.388,0.3923,0.3953,0.4013,0.4063,0.4104,0.41,0.4187,0.4092,0.4086,0.3892,0.4157,0.4157,0.4157,0.4157,0.3965,0.3887,0.3883,0.3795,0.3837,0.3891,0.4012,0.4063,0.4179,0.4173,0.4204,0.4056,0.4085,0.3879,0.4161,0.4161,0.416,0.416,0.4159,0.3936,0.3873,0.3835,0.3742,0.3761,0.3842,0.3902,0.404,0.416,0.4211,0.4136,0.4133,0.3933,0.4261,0.4261,0.4261,0.4262,0.4262,0.4262,0.3882,0.3829,0.3737,0.3679,0.3647,0.3688,0.3851,0.394,0.4071,0.4133,0.4133,0.3921,0.4218,0.4191,0.4263,0.4262,0.4262,0.4262,0.4262,0.3726,0.3758,0.3594,0.3537,0.3458,0.3405,0.3622,0.3746,0.3899,0.392,0.3799,0.4106,0.4062,0.4063,0.4033,0.4059,0.4059,0.4059,0.4059,0.3661,0.3653,0.3413,0.3278,0.3223,0.3246,0.3178,0.3321,0.3488,0.3501,0.3611,0.3534,0.3551,0.3474,0.3488,0.3445,0.3321,0.332,0.3319,0.355,0.3493,0.3285,0.3148,0.3064,0.3029,0.2858,0.2792,0.3053,0.3276,0.3376,0.3408,0.3286,0.3327,0.3201,0.3236,0.3165,0,0]},{"header":{"parameterUnit":"m.s-1","parameterCategory":2,"la1":30.2992,"la2":30.254,"lo1":-89.0895,"lo2":-89.0443,"dy":0.0025,"dx":0.0025,"nx":19,"ny":19,"refTime":"2026-04-11T03:00:00:Z","depth":"0","parameterNumber":3,"parameterNumberName":"V-component_of_CURRENTS"},"data":[0,0,0,0.0232,0.0235,0.0296,0.0296,0.0019,0.0016,0,0,0,0,0,0,0,0,0,0,0,0.0193,0.0194,0.0232,0.0235,0.0296,0.0296,0.002,0.0016,0,0,0,0,0,0,0,0,0,0,0,0.0193,0.0194,0.0195,0.0236,0.0296,0.0296,0.0021,0.0052,0,0,0,0,0,0,0,0,0,0,0.0033,0.0034,0.0193,0.0195,0.0237,0.0296,0.0296,0.0057,0.005,-0.0096,0,-0.0058,0,-0.001,-0.0006,-0.0007,0,0,0,0.0193,0.0041,0.0097,0.0195,0.0238,0.0297,0.0257,0.0056,0.0047,-0.0107,-0.0061,-0.0068,-0.0014,-0.0008,-0.001,-0.0186,-0.0185,0,0,0.0189,0.0147,0.0104,0.0093,0.0281,0.0255,0.0259,0.0054,0.0023,-0.0062,-0.0073,-0.0019,-0.0011,-0.0013,-0.0186,-0.0186,0,0,0,0.0208,0.0144,0.0212,0.0101,0.0151,0.0258,0.0262,0.0032,0.0068,-0.0075,-0.0022,-0.0013,-0.0017,-0.0187,-0.0186,-0.001,0,0,0,0.0204,0.0161,0.0211,0.0178,0.0159,0.0135,0.0244,0.0082,0.0063,-0.0021,-0.0013,-0.002,-0.0188,-0.0186,-0.0016,0.0054,0,0,0,0.0185,0.0157,0.0185,0.0177,0.0231,0.0142,0.0164,0.008,0.0093,-0.0008,-0.0021,-0.0188,-0.0187,-0.0022,0.0044,0.0134,0,0,0,0.0111,0.0161,0.0183,0.0243,0.0232,0.0282,0.0167,0.0146,0.0075,-0.0014,-0.0188,-0.0186,-0.0023,0.0038,0.0127,0.0304,0.0347,0,0,0.0142,0.0162,0.0206,0.023,0.0325,0.0268,0.0295,0.0153,0.0039,-0.0156,-0.0157,-0.0014,0.0044,0.0132,0.0388,0.043,0,0,0,0.0197,0.0241,0.0266,0.033,0.0353,0.0367,0.0261,0.0205,0.0098,0.0016,-0.0034,-0.0004,0.0047,0.0139,0.0172,0.0065,-0.0179,-0.018,-0.018,0.0115,0.0216,0.0307,0.0418,0.043,0.0408,0.0397,0.0292,0.0153,0.0154,0.0126,0.0292,0.0393,0.0419,0.0307,0.0111,0.0112,0.0113,0.0113,0.0214,0.0318,0.0387,0.0531,0.0546,0.0552,0.0484,0.0432,0.0388,0.0262,0.0304,0.0303,0.0467,0.0333,0.0124,0.0122,0.0121,0.012,0.0119,0.0226,0.031,0.0406,0.0601,0.0674,0.0668,0.0754,0.0651,0.054,0.0583,0.0647,0.0645,0.0538,0.0602,0.0603,0.0604,0.0604,0.0605,0.0605,0.0226,0.0341,0.0506,0.0684,0.0784,0.0887,0.0905,0.0927,0.0913,0.0846,0.0847,0.0597,0.044,0.0434,0.0617,0.0615,0.0613,0.0612,0.0611,0.0382,0.0389,0.0642,0.0774,0.1025,0.1194,0.1209,0.1334,0.1314,0.1352,0.1025,0.0981,0.0937,0.091,0.0913,0.1208,0.1208,0.1209,0.1209,0.044,0.0474,0.0793,0.1011,0.1226,0.1346,0.1621,0.1684,0.1497,0.1367,0.1206,0.1124,0.1104,0.1059,0.1028,0.1027,0.1346,0.1345,0.1345,0.0572,0.0639,0.0877,0.1086,0.1328,0.1534,0.1803,0.193,0.1619,0.1327,0.1025,0.102,0.0862,0.0839,0.0729,0.0695,0.0677,0,0]}],[{"header":{"parameterUnit":"m.s-1","parameterCategory":2,"la1":30.2992,"la2":30.254,"lo1":-89.0895,"lo2":-89.0443,"dy":0.0025,"dx":0.0025,"nx":19,"ny":19,"refTime":"2026-04-11T03:00:00:Z","depth":"2","parameterNumber":2,"parameterNumberName":"U-component_of_CURRENTS"},"data":[0,0,0,0.2449,0.2453,0.2633,0.2634,0.2725,0.2725,0,0,0,0,0,0,0,0,0,0,0,0.2409,0.2411,0.2448,0.2453,0.2633,0.2634,0.2725,0.2725,0,0,0,0,0,0,0,0,0,0,0,0.2408,0.2411,0.2413,0.2454,0.2633,0.2634,0.2724,0.2622,0,0,0,0,0,0,0,0,0,0,0.2463,0.2452,0.241,0.2413,0.2455,0.2633,0.2634,0.2618,0.2628,0.2605,0,0.2666,0,0.2688,0.2729,0.2729,0,0,0,0.2447,0.2445,0.2488,0.2414,0.2457,0.2633,0.255,0.2625,0.2636,0.2617,0.2668,0.2672,0.269,0.2729,0.2729,0.2904,0.2905,0,0,0.2437,0.2436,0.2482,0.2497,0.2544,0.2544,0.2556,0.2633,0.2661,0.2668,0.2674,0.2691,0.2729,0.273,0.2902,0.2904,0,0,0,0.2413,0.2429,0.2474,0.2492,0.2532,0.255,0.2563,0.2658,0.2674,0.2675,0.2692,0.273,0.273,0.2901,0.2903,0.2922,0,0,0,0.2406,0.2415,0.247,0.247,0.2532,0.2616,0.2586,0.2669,0.2678,0.2692,0.273,0.2731,0.2899,0.2902,0.2918,0.291,0,0,0,0.2394,0.2412,0.2446,0.247,0.2548,0.2616,0.2637,0.2672,0.2687,0.2729,0.2731,0.2898,0.2901,0.2914,0.2905,0.2858,0,0,0,0.2365,0.2421,0.2447,0.2514,0.2546,0.2611,0.2637,0.2713,0.2755,0.273,0.2899,0.2903,0.2913,0.2902,0.2856,0.2745,0.2744,0,0,0.2403,0.2427,0.2459,0.2485,0.2563,0.2583,0.2702,0.279,0.2804,0.2858,0.2864,0.2919,0.2905,0.2857,0.2956,0.2947,0,0,0,0.2446,0.247,0.2501,0.2562,0.2612,0.2696,0.2778,0.2828,0.2936,0.285,0.2989,0.298,0.2947,0.2881,0.2876,0.292,0.292,0.2919,0.2919,0.2444,0.2482,0.2537,0.2603,0.2662,0.2796,0.2858,0.2949,0.2979,0.306,0.3047,0.3097,0.3034,0.3027,0.3116,0.3116,0.3116,0.3117,0.3117,0.2441,0.2461,0.2544,0.2603,0.2713,0.2807,0.2945,0.3013,0.3111,0.3146,0.3112,0.2972,0.3021,0.312,0.3119,0.3119,0.3118,0.3118,0.3118,0.2401,0.2419,0.2466,0.2558,0.268,0.2824,0.2917,0.3049,0.3088,0.3112,0.3016,0.3014,0.3028,0.3106,0.3106,0.3106,0.3105,0.3105,0.3105,0.2324,0.2378,0.2405,0.2514,0.258,0.27,0.2907,0.2947,0.3001,0.3029,0.3027,0.3092,0.3092,0.3029,0.3102,0.3103,0.3103,0.3103,0.3104,0.2263,0.2283,0.2317,0.2366,0.2482,0.2508,0.2716,0.2781,0.2844,0.2804,0.2946,0.295,0.2912,0.2916,0.285,0.2872,0.2872,0.2872,0.2872,0.2201,0.2219,0.223,0.2267,0.232,0.2412,0.2365,0.2434,0.2578,0.2616,0.2626,0.2618,0.2633,0.2578,0.259,0.2517,0.2453,0.2452,0.2451,0.215,0.2169,0.215,0.2188,0.224,0.2241,0.214,0.2041,0.2156,0.2433,0.2537,0.2847,0.2866,0.2878,0.2819,0.2829,0.2722,0,0]},{"header":{"parameterUnit":"m.s-1","parameterCategory":2,"la1":30.2992,"la2":30.254,"lo1":-89.0895,"lo2":-89.0443,"dy":0.0025,"dx":0.0025,"nx":19,"ny":19,"refTime":"2026-04-11T03:00:00:Z","depth":"2","parameterNumber":3,"parameterNumberName":"V-component_of_CURRENTS"},"data":[0,0,0,0.0505,0.0505,0.0477,0.0477,0.0434,0.0433,0,0,0,0,0,0,0,0,0,0,0,0.0516,0.0516,0.0505,0.0505,0.0477,0.0477,0.0434,0.0433,0,0,0,0,0,0,0,0,0,0,0,0.0516,0.0516,0.0516,0.0505,0.0477,0.0477,0.0434,0.0455,0,0,0,0,0,0,0,0,0,0,0.0482,0.0486,0.0516,0.0516,0.0505,0.0477,0.0477,0.0456,0.0454,0.0447,0,0.0448,0,0.0442,0.0431,0.0431,0,0,0,0.0498,0.0488,0.0492,0.0516,0.0505,0.0477,0.0488,0.0455,0.0452,0.0443,0.0447,0.0446,0.0441,0.0431,0.0431,0.0438,0.0438,0,0,0.0499,0.0497,0.0494,0.049,0.0505,0.0488,0.0487,0.0453,0.0446,0.0447,0.0445,0.0441,0.0431,0.043,0.0438,0.0438,0,0,0,0.0509,0.0498,0.0503,0.0492,0.0489,0.0488,0.0486,0.0448,0.0453,0.0444,0.044,0.043,0.043,0.0437,0.0438,0.0563,0,0,0,0.0509,0.0505,0.0504,0.0501,0.049,0.0466,0.0481,0.0455,0.0451,0.044,0.043,0.043,0.0437,0.0438,0.0559,0.0601,0,0,0,0.0516,0.0505,0.0507,0.0501,0.0493,0.0467,0.0469,0.0454,0.0449,0.0431,0.0429,0.0437,0.0437,0.0555,0.0594,0.0617,0,0,0,0.0508,0.0532,0.0507,0.0527,0.0494,0.0522,0.0469,0.0466,0.0456,0.043,0.0437,0.0438,0.0554,0.059,0.0614,0.0628,0.0646,0,0,0.0541,0.0535,0.055,0.0528,0.0564,0.0525,0.0569,0.052,0.0465,0.0445,0.0445,0.056,0.0594,0.0617,0.0675,0.0692,0,0,0,0.0563,0.058,0.0584,0.0594,0.0597,0.0614,0.0577,0.0569,0.0549,0.0463,0.0542,0.0558,0.0569,0.0569,0.0582,0.0442,0.0442,0.0441,0.0441,0.0621,0.0623,0.0658,0.0667,0.0681,0.0679,0.0694,0.0671,0.0618,0.0625,0.0648,0.0731,0.0734,0.0744,0.0637,0.0638,0.0639,0.0639,0.0639,0.0689,0.0715,0.0721,0.0759,0.0773,0.081,0.0816,0.0792,0.0805,0.0744,0.0749,0.0685,0.0766,0.0649,0.0647,0.0646,0.0645,0.0644,0.0643,0.0731,0.0746,0.0763,0.0819,0.0884,0.0901,0.0977,0.0955,0.0898,0.0923,0.0869,0.0867,0.0798,0.0915,0.0916,0.0916,0.0916,0.0917,0.0917,0.0761,0.0781,0.0837,0.0895,0.0955,0.1035,0.1076,0.1086,0.1044,0.0989,0.0988,0.0823,0.0814,0.0811,0.0922,0.0921,0.092,0.092,0.0919,0.0806,0.0819,0.0901,0.0964,0.1104,0.1215,0.1243,0.1244,0.1211,0.1181,0.1013,0.1009,0.0958,0.0946,0.0945,0.1083,0.1083,0.1083,0.1083,0.084,0.0852,0.0968,0.1077,0.1212,0.1304,0.1422,0.138,0.1242,0.1131,0.1129,0.1088,0.108,0.1031,0.1017,0.1014,0.1171,0.1171,0.1171,0.0874,0.0909,0.0999,0.1105,0.1263,0.1399,0.1501,0.144,0.121,0.1174,0.1135,0.109,0.102,0.1012,0.0923,0.0906,0.0896,0,0]}],[{"header":{"parameterUnit":"m.s-1","parameterCategory":2,"la1":30.2992,"la2":30.254,"lo1":-89.0895,"lo2":-89.0443,"dy":0.0025,"dx":0.0025,"nx":19,"ny":19,"refTime":"2026-04-11T03:00:00:Z","depth":"4","parameterNumber":2,"parameterNumberName":"U-component_of_CURRENTS"},"data":[0,0,0,0.1428,0.1431,0.1519,0.1519,0.1518,0.1518,0,0,0,0,0,0,0,0,0,0,0,0.1394,0.1395,0.1428,0.1431,0.1519,0.1519,0.1518,0.1518,0,0,0,0,0,0,0,0,0,0,0,0.1393,0.1395,0.1396,0.1431,0.1519,0.1519,0.1518,0.1473,0,0,0,0,0,0,0,0,0,0,0.1399,0.1398,0.1394,0.1396,0.1432,0.1519,0.1519,0.1472,0.1476,0.1453,0,0.149,0,0.1515,0.1517,0.1517,0,0,0,0.1405,0.1395,0.1421,0.1396,0.1433,0.1519,0.1472,0.1475,0.1479,0.1458,0.149,0.1491,0.1515,0.1517,0.1517,0.1575,0.1576,0,0,0.14,0.1399,0.1418,0.1424,0.1484,0.1469,0.1475,0.1479,0.1491,0.149,0.1492,0.1515,0.1517,0.1517,0.1574,0.1575,0,0,0,0.1404,0.1396,0.1424,0.1423,0.1456,0.1473,0.1479,0.149,0.1502,0.1492,0.1515,0.1517,0.1517,0.1574,0.1575,0.1611,0,0,0,0.1399,0.14,0.1422,0.1421,0.1457,0.1492,0.1491,0.1501,0.1503,0.1515,0.1517,0.1517,0.1573,0.1574,0.1609,0.1676,0,0,0,0.1385,0.1398,0.1418,0.1421,0.1472,0.1493,0.1504,0.1502,0.1517,0.1517,0.1517,0.1572,0.1574,0.1606,0.167,0.1706,0,0,0,0.1365,0.1404,0.1419,0.1458,0.1472,0.15,0.1504,0.1529,0.1532,0.1517,0.1573,0.1575,0.1606,0.1667,0.1703,0.1503,0,0,0,0.1396,0.1408,0.1425,0.144,0.149,0.1485,0.1523,0.154,0.1549,0.1557,0.1559,0.161,0.167,0.1705,0.1599,0,0,0,0,0.1421,0.1441,0.1456,0.1493,0.151,0.1556,0.1557,0.1568,0.1615,0.1567,0.1632,0.1671,0.1691,0.1565,0.1582,0.1582,0.1582,0.1582,0.1582,0.1402,0.1432,0.1476,0.1525,0.1548,0.1594,0.163,0.1654,0.1627,0.1675,0.1714,0.1795,0.1663,0.1703,0.1704,0.1704,0.1704,0.1704,0.1704,0.1424,0.1444,0.1498,0.157,0.1619,0.166,0.1712,0.1734,0.1807,0.1776,0.1791,0.1631,0.1708,0.1708,0.1707,0.1706,0.1706,0.1706,0.1706,0.1395,0.1419,0.1491,0.1586,0.1672,0.1734,0.1807,0.1865,0.1885,0.1922,0.1781,0.1844,0.1825,0.1918,0.1918,0.1919,0.1919,0.192,0.192,0.1336,0.1409,0.1485,0.1601,0.1665,0.1768,0.1889,0.1928,0.1965,0.1854,0.1953,0.1868,0.1861,0.1839,0.1927,0.1926,0.1925,0.1924,0.1924,0.1307,0.1346,0.1443,0.152,0.1655,0.17,0.1854,0.1874,0.19,0.1859,0.1795,0.18,0.1779,0.1775,0.1748,0.1813,0.181,0.1808,0,0.1255,0.1288,0.1392,0.147,0.1531,0.1639,0.1631,0.1702,0.1735,0.1666,0.1889,0.1816,0.1817,0.179,0.1783,0.175,0,0,0,0.1223,0.1263,0.1305,0.14,0.1452,0.1497,0.1615,0.158,0.1729,0.1715,0.1753,0.1767,0.1894,0.1948,0.1928,0.1919,0.1884,0,0]},{"header":{"parameterUnit":"m.s-1","parameterCategory":2,"la1":30.2992,"la2":30.254,"lo1":-89.0895,"lo2":-89.0443,"dy":0.0025,"dx":0.0025,"nx":19,"ny":19,"refTime":"2026-04-11T03:00:00:Z","depth":"4","parameterNumber":3,"parameterNumberName":"V-component_of_CURRENTS"},"data":[0,0,0,0.0427,0.0427,0.0437,0.0437,0.047,0.047,0,0,0,0,0,0,0,0,0,0,0,0.0436,0.0437,0.0427,0.0427,0.0437,0.0437,0.047,0.047,0,0,0,0,0,0,0,0,0,0,0,0.0436,0.0437,0.0437,0.0427,0.0437,0.0438,0.047,0.0459,0,0,0,0,0,0,0,0,0,0,0.0448,0.0445,0.0437,0.0437,0.0427,0.0437,0.0438,0.0459,0.046,0.0469,0,0.0475,0,0.0465,0.0472,0.0472,0,0,0,0.0435,0.0444,0.0449,0.0437,0.0427,0.0437,0.0435,0.0459,0.0461,0.0471,0.0475,0.0476,0.0466,0.0472,0.0472,0.0512,0.0513,0,0,0.0434,0.0435,0.0448,0.045,0.0436,0.0435,0.0435,0.046,0.0463,0.0475,0.0476,0.0466,0.0473,0.0473,0.0512,0.0512,0,0,0,0.0428,0.0435,0.0439,0.0449,0.0445,0.0435,0.0435,0.0462,0.0465,0.0476,0.0467,0.0473,0.0473,0.0512,0.0512,0.0552,0,0,0,0.0428,0.043,0.0439,0.0439,0.0444,0.0448,0.0437,0.0464,0.0465,0.0466,0.0473,0.0473,0.0512,0.0512,0.0551,0.0584,0,0,0,0.0435,0.043,0.0435,0.0439,0.0439,0.0448,0.0452,0.0464,0.0459,0.0472,0.0473,0.0511,0.0512,0.0549,0.0581,0.0583,0,0,0,0.0432,0.0452,0.0435,0.0452,0.0439,0.0461,0.0451,0.0469,0.0483,0.0473,0.0512,0.0512,0.0549,0.0579,0.0581,0.0576,0,0,0,0.0458,0.0455,0.0465,0.045,0.0482,0.046,0.0493,0.0505,0.0493,0.0506,0.0506,0.0551,0.0581,0.0582,0.0607,0,0,0,0,0.0474,0.0486,0.0491,0.0503,0.0507,0.0525,0.0522,0.0516,0.0529,0.0501,0.0551,0.0568,0.0568,0.056,0.0515,0.0515,0.0515,0.0515,0.0515,0.0521,0.052,0.055,0.0556,0.0569,0.0574,0.0583,0.0576,0.0561,0.0566,0.06,0.063,0.0625,0.0589,0.059,0.059,0.059,0.059,0.059,0.0568,0.0583,0.0595,0.0628,0.0642,0.0671,0.0657,0.0644,0.0648,0.0627,0.0624,0.0603,0.0594,0.0593,0.0593,0.0592,0.0592,0.0592,0.0592,0.0596,0.0604,0.0628,0.0677,0.0732,0.0745,0.0783,0.0757,0.07,0.0706,0.0682,0.0656,0.0653,0.0701,0.0701,0.0701,0.0702,0.0702,0.0702,0.0608,0.063,0.0682,0.0735,0.0789,0.085,0.0862,0.0846,0.0789,0.074,0.0725,0.0668,0.0664,0.0659,0.0704,0.0704,0.0704,0.0703,0.0703,0.062,0.0643,0.0712,0.0772,0.0889,0.0927,0.095,0.089,0.0864,0.0802,0.0739,0.0737,0.072,0.0715,0.0711,0.0774,0.0774,0.0774,0,0.063,0.0645,0.0743,0.0835,0.0927,0.0971,0.0963,0.0935,0.0834,0.082,0.084,0.0772,0.0769,0.0752,0.0748,0.0745,0,0,0,0.0638,0.067,0.0739,0.0836,0.0941,0.095,0.096,0.0923,0.0862,0.0821,0.0777,0.0776,0.077,0.0712,0.068,0.0676,0.0666,0,0]}]]